Fort Morgan, CO

5:13 AM MDT on May 25, 2017 (GMT -0600)
Fort Morgan

Weather History for KFMM - November, 2012

Change the Weather History Date:

Thursday, November 29, 2012

  Actual Average (KAKO) Record (KAKO)
Temperature  
Mean Temperature 42 °F -  
Max Temperature 63 °F 41 °F 68 °F (2014)
Min Temperature 20 °F 17 °F -4 °F (1952)
Degree Days  
Heating Degree Days 24    
Moisture  
Dew Point 20 °F    
Average Humidity 53    
Maximum Humidity 90    
Minimum Humidity 20    
Precipitation  
Precipitation 0.00 in - - ()
Sea Level Pressure  
Sea Level Pressure 30.02 in    
Wind  
Wind Speed 6 mph ()    
Max Wind Speed 14 mph    
Max Gust Speed 9 mph    
Visibility 10.0 miles    
Events      
Averages and records for this station are not official NWS values.
T = Trace of Precipitation, MM = Missing Value Source: Averaged Metar Reports

Daily Weather History Graph

Daily Weather History Graph

Search for Another Location

Airport or City:

Trip Planner

Search our weather history database for the weather conditions in past years. The results will help you decide how hot, cold, wet, or windy it might be!

Date:

Astronomy

Nov. 29, 2012 Rise Set
Actual Time 6:57 AM MST 4:29 PM MST
Civil Twilight 6:27 AM MST 5:00 PM MST
Nautical Twilight 5:53 AM MST 5:33 PM MST
Astronomical Twilight 5:20 AM MST 6:06 PM MST
Moon 5:34 PM MST (11/29) 7:45 AM MST (11/29)
Length of Visible Light 10h 32m
Length of Day
9h 32m
Full, 99% of the Moon is Illuminated
Nov 29
Full
Dec 6
Last Quarter
Dec 13
New
Dec 19
First Quarter
Dec 28
Full

Hourly Weather History & Observations

Time (MST) Temp. Windchill Dew Point Humidity Pressure Visibility Wind Dir Wind Speed Gust Speed Precip Events Conditions
12:15 AM 25.7 °F 16.4 °F 22.1 °F 86% 30.04 in 10.0 mi West 9.2 mph - N/A   Clear
12:35 AM 24.8 °F 16.9 °F 21.2 °F 86% 30.03 in 10.0 mi WSW 6.9 mph - N/A   Clear
12:55 AM 23.5 °F 14.5 °F 20.3 °F 87% 30.03 in 10.0 mi West 8.1 mph - N/A   Clear
1:15 AM 21.7 °F 13.2 °F 19.2 °F 90% 30.02 in 10.0 mi West 6.9 mph - N/A   Clear
1:35 AM 23.5 °F 12.4 °F 19.4 °F 84% 30.02 in 10.0 mi West 11.5 mph - N/A   Clear
1:55 AM 23.0 °F 15.8 °F 18.3 °F 82% 30.03 in 10.0 mi SW 5.8 mph - N/A   Clear
2:35 AM 22.5 °F 12.4 °F 17.6 °F 82% 30.01 in 10.0 mi West 9.2 mph - N/A   Clear
2:55 AM 22.5 °F 12.4 °F 17.1 °F 80% 30.01 in 10.0 mi West 9.2 mph - N/A   Clear
3:15 AM 21.0 °F 10.6 °F 16.2 °F 81% 30.00 in 10.0 mi West 9.2 mph - N/A   Clear
3:35 AM 21.2 °F 10.9 °F 17.1 °F 84% 30.00 in 10.0 mi West 9.2 mph - N/A   Clear
3:55 AM 21.9 °F 10.4 °F 18.7 °F 87% 30.01 in 10.0 mi West 11.5 mph - N/A   Clear
4:15 AM 22.6 °F - 18.7 °F 85% 30.01 in 10.0 mi Calm Calm - N/A   Clear
4:35 AM 23.5 °F - 18.5 °F 81% 30.01 in 10.0 mi Calm Calm - N/A   Clear
4:55 AM 24.8 °F 19.1 °F 18.3 °F 76% 30.00 in 10.0 mi West 4.6 mph - N/A   Clear
5:15 AM 21.2 °F 13.6 °F 17.6 °F 86% 30.00 in 10.0 mi WSW 5.8 mph - N/A   Clear
5:35 AM 20.7 °F 11.9 °F 17.2 °F 87% 30.00 in 10.0 mi WSW 6.9 mph - N/A   Clear
5:55 AM 20.3 °F 12.5 °F 17.6 °F 89% 30.01 in 10.0 mi SW 5.8 mph - N/A   Clear
6:15 AM 21.4 °F 11.9 °F 18.3 °F 88% 30.02 in 10.0 mi WSW 8.1 mph - N/A   Clear
6:35 AM 23.5 °F 11.3 °F 19.6 °F 85% 30.02 in 10.0 mi West 13.8 mph - N/A   Clear
6:55 AM 22.8 °F 13.6 °F 18.5 °F 83% 30.03 in 10.0 mi SW 8.1 mph - N/A   Clear
7:15 AM 22.1 °F 12.8 °F 18.1 °F 85% 30.03 in 10.0 mi West 8.1 mph - N/A   Clear
7:35 AM 22.8 °F 14.5 °F 18.3 °F 83% 30.02 in 10.0 mi SW 6.9 mph - N/A   Clear
7:55 AM 26.6 °F 17.5 °F 20.3 °F 77% 30.03 in 10.0 mi West 9.2 mph - N/A   Clear
8:15 AM 30.7 °F 24.1 °F 22.1 °F 70% 30.03 in 10.0 mi West 6.9 mph - N/A   Scattered Clouds
8:35 AM 33.4 °F 26.6 °F 23.0 °F 66% 30.04 in 10.0 mi WSW 8.1 mph - N/A   Clear
8:55 AM 36.5 °F 31.8 °F 22.3 °F 56% 30.04 in 10.0 mi West 5.8 mph - N/A   Clear
9:15 AM 39.2 °F 32.5 °F 22.3 °F 51% 30.04 in 10.0 mi West 10.4 mph - N/A   Clear
9:35 AM 41.0 °F 39.0 °F 20.7 °F 44% 30.04 in 10.0 mi NW 3.5 mph 9.2 mph N/A   Clear
9:55 AM 46.6 °F - 17.2 °F 31% 30.04 in 10.0 mi Calm Calm - N/A   Clear
10:15 AM 48.4 °F - 17.8 °F 30% 30.04 in 10.0 mi West 8.1 mph - N/A   Clear
10:35 AM 50.4 °F - 17.4 °F 27% 30.04 in 10.0 mi West 8.1 mph - N/A   Clear
10:55 AM 52.3 °F - 20.1 °F 28% 30.03 in 10.0 mi West 4.6 mph - N/A   Clear
11:15 AM 55.2 °F - 18.3 °F 24% 30.02 in 10.0 mi West 5.8 mph - N/A   Clear
11:35 AM 52.9 °F - 18.9 °F 26% 30.01 in 10.0 mi WSW 9.2 mph - N/A   Clear
11:55 AM 51.4 °F - 18.9 °F 28% 30.01 in 10.0 mi WSW 6.9 mph - N/A   Clear
12:15 PM 52.5 °F - 19.0 °F 27% 30.00 in 10.0 mi West 6.9 mph - N/A   Clear
12:35 PM 55.2 °F - 19.6 °F 25% 29.99 in 10.0 mi WNW 3.5 mph - N/A   Clear
12:55 PM 61.0 °F - 18.9 °F 20% 29.98 in 10.0 mi WSW 4.6 mph - N/A   Clear
1:15 PM 62.6 °F - 20.7 °F 20% 29.96 in 10.0 mi SW 8.1 mph - N/A   Clear
1:35 PM 63.3 °F - 21.0 °F 20% 29.96 in 10.0 mi SW 6.9 mph - N/A   Clear
1:55 PM 62.4 °F - 20.8 °F 20% 29.96 in 10.0 mi WSW 6.9 mph - N/A   Clear
2:15 PM 62.6 °F - 21.6 °F 21% 29.96 in 10.0 mi WSW 8.1 mph - N/A   Clear
2:35 PM 61.2 °F - 22.6 °F 23% 29.95 in 10.0 mi WSW 8.1 mph - N/A   Clear
2:55 PM 60.1 °F - 23.0 °F 24% 29.96 in 10.0 mi SW 3.5 mph - N/A   Clear
3:15 PM 60.3 °F - 23.7 °F 25% 29.97 in 10.0 mi Calm Calm - N/A   Clear
3:35 PM 57.2 °F - 23.5 °F 27% 29.97 in 10.0 mi Calm Calm - N/A   Clear
3:55 PM 54.5 °F - 23.0 °F 29% 29.98 in 10.0 mi North 3.5 mph - N/A   Clear
4:15 PM 52.2 °F - 22.6 °F 32% 29.98 in 10.0 mi Calm Calm - N/A   Clear
4:35 PM 51.4 °F - 22.8 °F 33% 29.99 in 10.0 mi Calm Calm - N/A   Clear
4:55 PM 50.5 °F - 22.6 °F 34% 30.00 in 10.0 mi NE 3.5 mph - N/A   Clear
5:15 PM 44.6 °F 40.7 °F 21.7 °F 40% 30.00 in 10.0 mi NE 6.9 mph - N/A   Clear
5:35 PM 46.2 °F 43.3 °F 23.0 °F 40% 30.01 in 10.0 mi ENE 5.8 mph - N/A   Clear
5:55 PM 49.3 °F - 23.0 °F 36% 30.01 in 10.0 mi NE 4.6 mph - N/A   Clear
6:15 PM 50.7 °F - 23.0 °F 34% 30.01 in 10.0 mi ENE 5.8 mph - N/A   Clear
6:35 PM 45.7 °F 43.4 °F 22.8 °F 41% 30.01 in 10.0 mi NNE 4.6 mph - N/A   Clear
6:55 PM 46.6 °F - 21.4 °F 37% 30.01 in 10.0 mi NE 3.5 mph - N/A   Clear
7:15 PM 43.9 °F - 22.1 °F 42% 30.02 in 10.0 mi Calm Calm - N/A   Clear
7:35 PM 50.4 °F - 22.1 °F 33% 30.03 in 10.0 mi NE 6.9 mph - N/A   Clear
7:55 PM 41.2 °F 37.3 °F 21.9 °F 46% 30.04 in 10.0 mi NE 5.8 mph - N/A   Clear
8:15 PM 37.0 °F - 21.6 °F 54% 30.04 in 10.0 mi Calm Calm - N/A   Clear
8:35 PM 40.3 °F - 22.8 °F 50% 30.04 in 10.0 mi Calm Calm - N/A   Clear
8:55 PM 42.4 °F 38.1 °F 22.5 °F 45% 30.04 in 10.0 mi NE 6.9 mph - N/A   Clear
9:15 PM 36.3 °F 28.9 °F 22.1 °F 56% 30.05 in 10.0 mi NE 10.4 mph - N/A   Clear
9:35 PM 37.4 °F 29.8 °F 21.9 °F 54% 30.05 in 10.0 mi NE 11.5 mph - N/A   Clear
9:55 PM 38.7 °F 31.4 °F 21.2 °F 50% 30.05 in 10.0 mi NNE 11.5 mph - N/A   Clear
10:15 PM 39.6 °F 33.5 °F 20.5 °F 46% 30.06 in 10.0 mi NNE 9.2 mph - N/A   Clear
10:35 PM 37.8 °F 31.8 °F 19.9 °F 49% 30.06 in 10.0 mi NNE 8.1 mph - N/A   Clear
10:55 PM 36.3 °F - 19.4 °F 50% 30.07 in 10.0 mi Calm Calm - N/A   Clear
11:15 PM 35.6 °F 31.7 °F 19.9 °F 53% 30.08 in 10.0 mi SSW 4.6 mph - N/A   Clear
11:35 PM 32.5 °F 28.1 °F 21.4 °F 64% 30.07 in 10.0 mi West 4.6 mph - N/A   Clear
11:55 PM 34.2 °F 28.2 °F 21.6 °F 60% 30.07 in 10.0 mi West 6.9 mph - N/A   Clear